This demonstration page uses our WeatherBlox Daily Observations layout. Learn more.

40.92945, -100.16068

Hourly Observations for December 14, 2016

Temp ( °F °C ) Dew Point ( °F °C ) Humidity (%) Winds ( mph kmh ) Pressure ( in mb ) Visibility ( mi km ) Precip ( " mm )
12:15 am 00:15 Clear 14 -9.8 4 -15.3 65 65 SE 7 11 30.27 1025 10 16.0934 N/A
12:35 am 00:35 Clear 16 -9.1 5 -15.1 62 62 SE 7 11 30.27 1025 10 16.0934 N/A
12:55 am 00:55 Clear 14 -10 4 -15.3 66 66 SE 6 9 30.27 1025 10 16.0934 N/A
1:15 am 01:15 Clear 13 -10.6 4 -15.5 68 68 SSE 6 9 30.3 1026 10 16.0934 N/A
1:35 am 01:35 Clear 13 -10.6 4 -15.7 66 66 Calm 30.33 1027 10 16.0934 N/A
1:55 am 01:55 Clear 8 -13.2 2 -16.5 76 76 N 7 11 30.36 1028 10 16.0934 N/A
2:15 am 02:15 Clear 8 -13.4 2 -16.5 78 78 N 8 13 30.39 1029 10 16.0934 N/A
2:35 am 02:35 Clear 10 -12.5 4 -15.7 77 77 N 8 13 30.39 1029 10 16.0934 N/A
2:55 am 02:55 Clear 8 -13.4 2 -16.7 76 76 NNE 7 11 30.39 1029 10 16.0934 N/A
3:15 am 03:15 Clear 7 -14 1 -17 78 78 N 8 13 30.39 1029 10 16.0934 N/A
3:35 am 03:35 Clear 7 -13.8 2 -16.6 80 80 NNW 7 11 30.42 1030 10 16.0934 N/A
3:55 am 03:55 Clear 11 -11.5 6 -14.7 77 77 N 9 15 30.39 1029 10 16.0934 N/A
4:15 am 04:15 Clear 13 -10.7 6 -14.5 74 74 N 8 13 30.42 1030 10 16.0934 N/A
4:35 am 04:35 Clear 14 -10 7 -14 73 73 N 8 13 30.42 1030 10 16.0934 N/A
4:55 am 04:55 Clear 14 -9.9 8 -13.5 75 75 N 10 17 30.45 1031 10 16.0934 N/A
5:15 am 05:15 Clear 15 -9.7 8 -13.1 77 77 N 9 15 30.45 1031 10 16.0934 N/A
5:35 am 05:35 Clear 14 -9.8 8 -13.4 75 75 N 9 15 30.45 1031 10 16.0934 N/A
5:55 am 05:55 Clear 15 -9.7 7 -13.8 72 72 N 10 17 30.48 1032 10 16.0934 N/A
6:15 am 06:15 Clear 14 -10.1 7 -14.1 73 73 N 8 13 30.48 1032 10 16.0934 N/A
6:35 am 06:35 Clear 13 -10.5 6 -14.5 73 73 N 7 11 30.48 1032 10 16.0934 N/A
6:55 am 06:55 Clear 12 -11.2 5 -15 74 74 N 8 13 30.53 1034 10 16.0934 N/A
7:15 am 07:15 Clear 12 -11 5 -15 73 73 N 7 11 30.5 1033 10 16.0934 N/A
7:35 am 07:35 Clear 12 -11 5 -15.1 72 72 N 6 9 30.5 1033 10 16.0934 N/A
7:55 am 07:55 Clear 12 -11 5 -14.8 74 74 N 5 7 30.5 1033 10 16.0934 N/A
8:15 am 08:15 Sunny 13 -10.5 6 -14.5 73 73 N 3 6 30.5 1033 10 16.0934 N/A
8:35 am 08:35 Sunny 14 -10.1 7 -14 73 73 NNW 3 6 30.53 1034 10 16.0934 N/A
8:55 am 08:55 Sunny 16 -9.1 6 -14.4 66 66 NNW 7 11 30.53 1034 10 16.0934 N/A
9:15 am 09:15 Sunny 17 -8.3 5 -14.8 60 60 NNW 8 13 30.56 1035 10 16.0934 N/A
9:35 am 09:35 Sunny 18 -7.7 5 -15.1 56 56 N 13 20 30.53 1034 10 16.0934 N/A
9:55 am 09:55 Sunny 19 -7.1 4 -15.6 51 51 N 12 19 30.53 1034 10 16.0934 N/A
10:15 am 10:15 Sunny 20 -6.5 4 -15.7 48 48 N 12 19 30.53 1034 10 16.0934 N/A
10:35 am 10:35 Sunny 21 -6.2 2 -16.7 44 44 N 14 22 30.56 1035 10 16.0934 N/A
10:55 am 10:55 Sunny 22 -5.8 -1 -18.5 36 36 N 15 24 30.56 1035 10 16.0934 N/A
11:15 am 11:15 Sunny 22 -5.5 -2 -19.1 34 34 N 13 20 30.56 1035 10 16.0934 N/A
11:35 am 11:35 Sunny 22 -5.5 -4 -19.9 31 31 N 14 22 30.56 1035 10 16.0934 N/A
11:55 am 11:55 Sunny 24 -4.3 -4 -19.8 29 29 NNW 15 24 30.53 1034 10 16.0934 N/A
12:15 pm 12:15 Sunny 24 -4.7 -4 -20.2 29 29 NNW 12 19 30.5 1033 10 16.0934 N/A
12:35 pm 12:35 Sunny 25 -4.1 -4 -20.1 28 28 N 12 19 30.5 1033 10 16.0934 N/A
12:55 pm 12:55 Sunny 25 -4.1 -5 -20.3 27 27 NNW 10 17 30.5 1033 10 16.0934 N/A
1:15 pm 13:15 Sunny 24 -4.3 -5 -20.5 27 27 NNW 7 11 30.5 1033 10 16.0934 N/A
1:35 pm 13:35 Partly Cloudy 25 -4 -5 -20.5 27 27 NW 9 15 30.5 1033 10 16.0934 N/A
1:55 pm 13:55 Partly Cloudy 25 -4 -5 -20.4 27 27 NNW 9 15 30.5 1033 10 16.0934 N/A
2:15 pm 14:15 Partly Cloudy 25 -4 -5 -20.4 27 27 NW 12 19 30.5 1033 10 16.0934 N/A
2:35 pm 14:35 Partly Cloudy 26 -3.6 -4 -19.8 28 28 WNW 10 17 30.5 1033 10 16.0934 N/A
2:55 pm 14:55 Sunny 25 -3.9 -3 -19.4 29 29 WNW 7 11 30.5 1033 10 16.0934 N/A
3:15 pm 15:15 Partly Cloudy 25 -4 -3 -19.2 30 30 W 8 13 30.5 1033 10 16.0934 N/A
3:35 pm 15:35 Partly Cloudy 25 -3.8 -1 -18.6 31 31 W 9 15 30.5 1033 10 16.0934 N/A
3:55 pm 15:55 Mostly Cloudy 25 -3.9 -1 -18.5 31 31 W 8 13 30.5 1033 10 16.0934 N/A
4:15 pm 16:15 Mostly Cloudy 25 -3.8 -1 -18.2 32 32 W 6 9 30.5 1033 10 16.0934 N/A
4:35 pm 16:35 Partly Cloudy 25 -4 0 -18 33 33 WNW 5 7 30.5 1033 10 16.0934 N/A
4:55 pm 16:55 Partly Cloudy 24 -4.4 0 -17.6 35 35 Calm 30.5 1033 10 16.0934 N/A
5:15 pm 17:15 Mostly Cloudy 24 -4.7 0 -17.6 36 36 Calm 30.48 1032 10 16.0934 N/A
5:35 pm 17:35 Partly Cloudy 21 -6.2 1 -17 42 42 SW 3 6 30.5 1033 10 16.0934 N/A
5:55 pm 17:55 Clear 20 -6.9 2 -16.9 45 45 SW 3 6 30.53 1034 10 16.0934 N/A
6:15 pm 18:15 Clear 20 -6.4 4 -15.8 48 48 SSW 5 7 30.5 1033 10 16.0934 N/A
6:35 pm 18:35 Clear 22 -5.7 3 -16 44 44 Calm 30.5 1033 10 16.0934 N/A
6:55 pm 18:55 Mostly Cloudy 22 -5.5 3 -16 44 44 Calm 30.5 1033 10 16.0934 N/A
7:15 pm 19:15 Mostly Cloudy 20 -6.5 2 -16.5 45 45 SSW 5 7 30.53 1034 10 16.0934 N/A
7:35 pm 19:35 Mostly Cloudy 17 -8.3 3 -16.1 54 54 SSE 3 6 30.53 1034 10 16.0934 N/A
7:55 pm 19:55 Partly Cloudy 19 -7.2 3 -16 50 50 Calm 30.53 1034 10 16.0934 N/A
8:15 pm 20:15 Mostly Cloudy 18 -8 3 -16 53 53 Calm 30.56 1035 10 16.0934 N/A
8:35 pm 20:35 Cloudy 14 -10.2 4 -15.3 67 67 Calm 30.56 1035 7 11.26538 N/A
8:55 pm 20:55 Partly Cloudy 11 -11.5 3 -16.1 69 69 NE 3 6 30.59 1036 7 11.26538 N/A
9:15 pm 21:15 Partly Cloudy 11 -11.5 3 -16 70 70 Calm 30.59 1036 7 11.26538 N/A
9:35 pm 21:35 Partly Cloudy 12 -11.3 4 -15.7 70 70 NE 3 6 30.59 1036 10 16.0934 N/A
9:55 pm 21:55 Partly Cloudy 13 -10.6 4 -15.4 68 68 E 3 6 30.59 1036 10 16.0934 N/A
10:15 pm 22:15 Mostly Cloudy 13 -10.4 6 -14.4 73 73 Calm 30.56 1035 10 16.0934 N/A
10:35 pm 22:35 Mostly Cloudy 13 -10.6 5 -15.1 70 70 ENE 3 6 30.59 1036 10 16.0934 N/A
10:55 pm 22:55 Cloudy 13 -10.7 4 -15.4 69 69 Calm 30.59 1036 10 16.0934 N/A
11:15 pm 23:15 Cloudy 13 -10.5 6 -14.4 73 73 S 3 6 30.59 1036 10 16.0934 N/A
11:35 pm 23:35 Cloudy 15 -9.5 8 -13.6 72 72 SSE 3 6 30.56 1035 10 16.0934 N/A
11:55 pm 23:55 Partly Cloudy 15 -9.6 8 -13.4 74 74 Calm 30.56 1035 10 16.0934 N/A

Powered by AerisWeather